Simultaneous Nadir Overpasses (SNOs) Predictions

Prediction of SNOs between GOES-16 and METOP-B Satellite Orbit:

Table of predicted SNOs for the next 14.0 days since TLE Epoch: 10/31/2020
Index Date Time (GOES-16) GOES-16 Lat,Lon METOP-B Lat,Lon Distance(km) Time Diff (sec)
1 11/01/2020 02:22:45 0.04, -75.15 0.37, -73.55 182.13 80
2 11/02/2020 14:41:38 -0.04, -75.18 0.61, -78.12 334.43 80
3 11/03/2020 14:23:39 -0.03, -75.18 -0.47, -73.12 234.93 80
4 11/05/2020 02:42:39 0.03, -75.16 -0.57, -77.71 291.14 80
5 11/06/2020 02:19:21 0.02, -75.16 0.58, -72.72 278.35 80
6 11/07/2020 14:38:13 -0.02, -75.20 0.47, -77.28 237.77 80
7 11/08/2020 14:20:15 -0.02, -75.20 -0.68, -72.29 331.99 80
8 11/10/2020 02:39:15 0.01, -75.18 -0.35, -76.88 193.21 80
9 11/11/2020 02:15:55 0.01, -75.19 0.74, -71.88 376.84 80
10 11/12/2020 14:34:49 -0.01, -75.24 0.25, -76.45 138.41 80
11 11/13/2020 14:16:49 -0.01, -75.25 -0.84, -71.45 431.99 80
